Location: Boiro
(42.6475°N, 8.8834°W)
Time: 04:10:27
(UTC+02:00)

LINGQIAO VIDEO B - Pass Details

Date: 08 July 2022
Orbit: 636 x 662 km, 97.7° (Epoch: 14 August)

Event Time Altitude Azimuth Distance (km) Brightness Sun altitude
Rises 22:53:40 0° 173° (S) 2,971 ? -6.6°
Reaches altitude 10° 22:55:54 10° 176° (S) 2,067 ? -6.9°
Maximum altitude 23:00:23 66° 259° (W) 726 ? -7.5°
Drops below altitude 10° 23:04:56 10° 342° (NNW) 2,091 ? -8.2°
Sets 23:07:11 0° 345° (NNW) 3,009 ? -8.5°
